Hourly Weather Roundup
Issued by NWS Central Illinois

Home | Current Version | Previous Version | Text Only | Print | Product List | Glossary On
Versions: 1 2 3 4 5 6 7 8 9 10 11 12 13 14 15 16 17 18 19 20 21 22 23 24 25 26 27 28 29 30 31 32 33 34 35 36 37 38 39 40 41 42 43 44 45 46 47 48 49 50
940
NZUS43 KILX 230510
HWRILX

AREA WEATHER ROUNDUP
NATIONAL WEATHER SERVICE, LINCOLN IL
1100 PM CST WED FEB 22 2017


CITY           SKY/WX    TMP DP  RH WIND       PRES   REMARKS
BLOOMINGTON    PTCLDY    56  54  93 SW12      29.69F
CHAMPAIGN      CLEAR     55  51  86 S10       29.71S
DECATUR        CLEAR     58  52  80 SW12      29.71S
EFFINGHAM      CLEAR     59  55  87 S5        29.75S
FLORA          PTCLDY    57  54  88 S7        29.75S
GALESBURG      CLEAR     54  50  88 SW6       29.69R
JACKSONVILLE   CLEAR     54  52  93 S5        29.69S
LACON          PTCLDY    55  53  94 SW6       29.67R
LAWRENCEVILLE  CLEAR     53  51  93 S9        29.75F
LITCHFIELD     CLEAR     53  51  95 S6        29.73R
$$


CITY           SKY/WX    TMP DP  RH WIND       PRES   REMARKS
LINCOLN        FOG       53  53 100 CALM      29.69S VSB 1
MACOMB         CLEAR     51  49  95 SW7       29.72S
MATTOON        CLEAR     59  54  83 S7        29.72S
MT CARMEL AP   CLEAR     57  52  84 S7        29.76S
OLNEY-NOBLE AP CLEAR     55  55 100 CALM      29.75S
PARIS          CLEAR     58  54  88 SW13      29.74S
PEORIA         CLEAR     50  50 100 SW7       29.69R FOG
PONTIAC        CLEAR     56  55  98 SW7       29.68S FOG
RANTOUL        CLEAR     60  55  82 SW12      29.70S
SPRINGFIELD    FOG       50  50 100 S7        29.71S VSB 1/4
TAYLORVILLE    CLEAR     57  54  88 S12       29.72S
$$

...REGIONAL REPORTS...


CITY           SKY/WX    TMP DP  RH WIND       PRES   REMARKS
CHICAGO O`HARE CLEAR     59  52  77 SW10G21   29.61S
KANKAKEE       CLEAR     55  53  92 S12       29.67S
MOLINE         CLEAR    N/A N/A N/A W5        29.67R
MOUNT STERLING PTCLDY    52  51  97 S6        29.68S
MOUNT VERNON   PTCLDY    58  55  90 S8        29.75F
PITTSFIELD     CLOUDY    55  54  97 S3        29.71R
QUINCY         CLEAR     55  52  89 W10       29.70R
ROCKFORD       CLEAR     57  50  77 W15       29.64R
$$


CITY           SKY/WX    TMP DP  RH WIND       PRES   REMARKS
BURLINGTON     CLEAR     53  52  96 W5        29.69R
CEDAR RAPIDS   PTCLDY    49  45  86 NW16      29.69R
DES MOINES     CLEAR     51  43  74 N10       29.77R
KIRKSVILLE     PTCLDY    46  41  82 N3        29.73R
OTTUMWA        CLEAR     53  42  66 NW14      29.72R
ST LOUIS       MOCLDY    63  53  70 SW12      29.73R
$$


CITY           SKY/WX    TMP DP  RH WIND       PRES   REMARKS
TERRE HAUTE    CLEAR     57  52  83 S7        29.74S
EVANSVILLE     PTCLDY    57  53  86 SW3       29.78R
INDIANAPOLIS   PTCLDY    58  53  84 S9        29.74R
LAFAYETTE      CLEAR     57  53  86 SW6       29.71R
MADISON        CLEAR     53  43  68 W6        29.59R
MILWAUKEE      CLEAR     59  52  77 SW16G26   29.55S
$$






USA.gov is the U.S. government's official web portal to all federal, state and local government web resources and services.